Tracking 29068 objects as of 19-Jul-2024
HD Live streaming from Space Station
objects crossing your sky now

MARECS B2

Track MARECS B2 now!
MARECS B2 is classified as:


NORAD ID: 15386
Int'l Code: 1984-114B
Perigee: 36,579.1 km
Apogee: 37,534.9 km
Inclination: 14.3 °
Period: 1,501.1 minutes
Semi major axis: 43428 km
RCS: 3.0552 m2 (large)
Launch date: November 10, 1984
Source: European Space Agency (ESA)
Launch site: FRENCH GUIANA (FRGUI)
Your satellite tracking list
Your tracking list is empty




NASA's NSSDC Master Catalog

Two Line Element Set (TLE):
1 15386U 84114B   24200.43878021 -.00000089  00000-0  00000-0 0  9990
2 15386  14.3179 337.5627 0110047  40.0168 138.7845  0.95928527105970
Source of the keplerian elements: AFSPC